Regional Weather Roundup
Issued by NWS Upton, NY

Home | Current Version | Previous Version | Text Only | Print | Product List | Glossary On
Versions: 1 2 3 4 5 6 7 8 9 10 11 12 13 14 15 16 17 18 19 20 21 22 23 24 25 26 27 28 29 30 31 32 33 34 35 36 37 38 39 40 41 42 43 44 45 46 47 48 49 50
000
ASUS41 KOKX 011005
RWROKX
REGIONAL WEATHER ROUNDUP
NATIONAL WEATHER SERVICE NEW YORK NY
600 AM EDT FRI AUG 01 2014

NOTE: "FAIR" INDICATES FEW OR NO CLOUDS BELOW 12,000 FEET WITH NO
SIGNIFICANT WEATHER AND/OR OBSTRUCTIONS TO VISIBILITY.

NYZ071-072-176-178-NJZ106-104-011100-
NEW YORK CITY METRO AREA


CITY           SKY/WX    TMP DP  RH WIND       PRES   REMARKS
CENTRAL PARK   PTCLDY    72  65  78 SW5       30.20R
LAGUARDIA APRT MOCLDY    72  65  78 SW6       30.17R
KENNEDY INTL   MOCLDY    72  68  87 SW7       30.18S
NEWARK/LIBERTY MOCLDY    70  66  87 SW5       30.17R
BRNX BOT. GARD   N/A     70  64  83 E2        30.19R
TETERBORO      PTCLDY    72  65  78 CALM      30.16S
$$

NYZ177-179-078>081-011100-
LONG ISLAND NEW YORK

CITY           SKY/WX    TMP DP  RH WIND       PRES   REMARKS
FARMINGDALE    PTCLDY    72  68  87 W7        30.18S
ISLIP          MOCLDY    73  68  84 SW5       30.16S
SHIRLEY        PTCLDY    70  67  90 S6        30.19R FOG
WESTHAMPTON    PTCLDY    69  66  90 S3        30.20S FOG
MONTAUK POINT    N/A     71  65  81 SW6       30.20S
$$

NYZ052-065-067-011100-
HUDSON VALLEY

CITY           SKY/WX    TMP DP  RH WIND       PRES   REMARKS
WHITE PLAINS   CLEAR     67  65  93 CALM      30.18R
NEWBURGH       PTCLDY    61  59  94 CALM      30.19R
MONTGOMERY     PTCLDY    58  56  93 CALM      30.18R
POUGHKEEPSIE   PTCLDY    62  59  90 CALM      30.16R
ALBANY         MOCLDY    64  61  90 SW3       30.16R
$$

NJZ001-105-106-008-010-013-015-019>022-104-011100-
NEW JERSEY

CITY           SKY/WX    TMP DP  RH WIND       PRES   REMARKS
NEWARK/LIBERTY MOCLDY    70  66  87 SW5       30.17R
TETERBORO      PTCLDY    72  65  78 CALM      30.16S
CALDWELL       PTCLDY    62  59  90 CALM      30.18R
MORRISTOWN     FOG       61  57  88 CALM      30.17F VSB 1
SOMERVILLE     PTCLDY    60  58  92 NW3       30.16R
LINDEN         FAIR      71  66  85 CALM      30.19S
SUSSEX         PTCLDY    60  57  89 CALM      30.18R FOG
ANDOVER          N/A     61  60  97 CALM      30.18R
TRENTON        PTCLDY    68  65  90 SW5       30.16S FOG
MILLVILLE      MOCLDY    71  66  84 CALM      30.17S
ATLANTIC CITY  CLOUDY    71  67  87 SW3       30.17S
WRIGHTSTOWN    MOCLDY    68  67  95 S2        30.15S
TOMS RIVER     CLOUDY    70  66  88 CALM      30.18S
BELMAR         MOCLDY    70  64  83 SW6       30.17S
$$

PAZ047>061-062-071-011100-
EASTERN PENNSYLVANIA

CITY           SKY/WX    TMP DP  RH WIND       PRES   REMARKS
PHILADELPHIA   MOCLDY    72  67  84 S3        30.17S
ALLENTOWN      PTCLDY    63  60  90 NE5       30.17R
SCRANTON       MOCLDY    64  59  83 E6        30.17R
$$

CTZ002-004>006-009-010-012-RIZ004-006-007-MAZ004-011-015-011100-
SOUTHERN NEW ENGLAND
 IN CT

CITY           SKY/WX    TMP DP  RH WIND       PRES   REMARKS
BRADLEY INTL   CLOUDY    70  64  81 SW5       30.18R
HARTFORD       CLOUDY    68  65  90 CALM      30.18R FOG
DANBURY        CLOUDY    66  62  87 CALM      30.20R FOG
WTRBRY/OXFORD  CLOUDY    68  64  88 CALM      30.22R FOG
BRIDGEPORT     CLEAR     72  69  90 SW6       30.18R
MERIDEN        CLOUDY    67  65  93 CALM      30.19R FOG
NEW HAVEN      PTCLDY    73  69  87 CALM      30.18S
CHESTER        CLOUDY    70  68  94 W5        30.20S FOG
GROTON         CLEAR     65  65 100 CALM      30.19R FOG
WILLIMANTIC    MOCLDY    63  61  93 CALM      30.20S FOG

 IN RI

CITY           SKY/WX    TMP DP  RH WIND       PRES   REMARKS
PROVIDENCE     PTCLDY    65  62  90 CALM      30.20R
BLOCK ISLAND   CLEAR     70  64  83 SW7       30.20R
WESTERLY       CLEAR     64  61  90 CALM      30.20S

 IN MA

CITY           SKY/WX    TMP DP  RH WIND       PRES   REMARKS
BOSTON         PTCLDY    66  62  87 S5        30.19R
WORCESTER      CLOUDY    66  62  87 SW9       30.21R
WESTFIELD      CLOUDY    65  62  90 CALM      30.19R
PROVINCETOWN   PTCLDY    66  63  88 SW6       30.21R
NANTUCKET      CLEAR     65  63  93 S9        30.22R
$$

ANZ330-335-338-340-345-350-353-355-011100-
COASTAL MARINE OBSERVATIONS


STATION/POSITION TIME  SKY/WX   TEMP    WIND        PRES    VSBY  WAVE
                                AIR SEA DIR/SP/G                  HT/PER
                 (UTC)          (F)     (DEG/KT/KT) (MB)    (MI)  (FT/S)
NY HARB ENTRANCE NOT AVBL
4S FIRE IS       NOT AVBL
23SW MTP         1000            70 70              1021.9          3/ 8
HUDSON CANYON    1000            73 74  270/  4/  4 1022.1          3/ 8
EXECUTION ROCKS  1000            71 70  220/  8/ 10   N/A
WESTERN LI SOUND 1000            72     220/ 10/ 12   N/A           0
CENTRAL LI SOUND 0900            72 72  220/ 10/ 12   N/A           2/ 3
EASTERN LI SOUND 0900            69 67  180/  2/  4   N/A
ROBBINS REEF     1000            72     250/  4/  6   N/A
$$


>>>>>>>>>>>>>>>>>>>>>>>>>>>> KEY <<<<<<<<<<<<<<<<<<<<<<<<<<<
>                                                          <
>     SKY/WX - SKY CONDITION/PRESENT WEATHER               <
>     TMP    - TEMPERATURE IN FAHRENHEIT                   <
>     DP     - DEWPOINT IN FAHRENHEIT                      <
>     RH     - RELATIVE HUMIDITY IN PERCENT                <
>     WIND   - DIRECTION AND SPEED IN MPH                  <
>     PRES   - MEAN SEA LEVEL PRESSURE IN INCHES OF HG     <
>     WCI    - WIND CHILL INDEX                            <
>     VSB    - VISIBILITY IN MILES                         <
>     HX     - HEAT INDEX                                  <
>     TC     - TEMPERATURE IN CELSIUS                      <
>     VRB    - VARIABLE WIND DIRECTION                     <
>                                                          <
>>>>>>>>>>>>>>>>>>>>>>>>>>>> KEY <<<<<<<<<<<<<<<<<<<<<<<<<<<




USA.gov is the U.S. government's official web portal to all federal, state and local government web resources and services.